Date String (YYYY-MM-DD hh:mm:ss) UTC,Instrument flags,Ambient pressure (hPa),Sample flow (lpm),Bypass flow (lpm),Sample temperature (°C),Ambient temperature (°C),ASC tube jacket temperature (°C),LED temperature (°C),Box temperature (°C),Sample RH (%),Span deviation,Mass concentration (μg/m³),Mass concentration (μg/m³),Mass concentration (μg/m³)
DateTimeUTC,F1_M11,P_M11,Q1_M11,Q2_M11,T1_M11,T2_M11,T3_M11,T4_M11,T5_M11,U1_M11,ZSPAN_M11,X2_M11,X0_M11,X1_M11
2021-11-01 18:00:00,,0832.8,5.01,0.00,23.1,22.3,00.0,32.1,24.9,19.1,0000.0,0005.24,0007.33,0005.15
2021-11-01 18:01:00,,0832.7,5.00,0.00,23.1,22.3,00.0,32.1,24.9,19.1,0000.0,0005.24,0007.32,0005.17
2021-11-01 18:02:00,,0832.8,5.01,0.00,23.1,22.3,00.0,32.1,24.9,19.2,0000.0,0005.26,0007.33,0005.18
2021-11-01 18:03:00,,0832.8,4.99,0.00,23.1,22.3,00.0,32.1,24.9,19.2,0000.0,0005.30,0007.44,0005.21
2021-11-01 18:04:00,,0832.7,5.01,0.00,23.1,22.2,00.0,32.1,24.9,19.2,0000.0,0005.33,0007.49,0005.24
2021-11-01 18:05:00,,0832.7,4.98,0.00,23.0,22.2,00.0,32.1,24.9,19.2,0000.0,0005.35,0007.50,0005.27
2021-11-01 18:06:00,,0832.7,5.01,0.00,23.0,22.2,00.0,32.1,24.9,19.3,0000.0,0005.37,0007.53,0005.29
2021-11-01 18:07:00,,0832.7,4.99,0.00,23.0,22.2,00.0,32.1,24.9,19.2,0000.0,0005.41,0007.63,0005.31
2021-11-01 18:08:00,,0832.7,5.00,0.00,23.0,22.2,00.0,32.1,24.9,19.1,0000.0,0005.42,0007.66,0005.33
2021-11-01 18:09:00,,0832.7,5.00,0.00,23.0,22.2,00.0,32.1,24.9,19.1,0000.0,0005.44,0007.69,0005.35
2021-11-01 18:10:00,,0832.6,4.97,0.00,23.0,22.2,00.0,32.1,24.9,19.2,0000.0,0005.45,0007.04,0005.37
2021-11-01 18:11:00,,0832.6,5.01,0.00,23.0,22.2,00.0,32.1,24.9,19.2,0000.0,0005.46,0007.01,0005.39
2021-11-01 18:12:00,,0832.6,5.00,0.00,23.0,22.2,00.0,32.1,24.9,19.2,0000.0,0005.50,0007.12,0005.42
2021-11-01 18:13:00,,0832.6,4.99,0.00,23.0,22.2,00.0,32.1,24.9,19.3,0000.0,0005.54,0007.21,0005.46
2021-11-01 18:14:00,,0832.6,5.00,0.00,23.0,22.2,00.0,32.1,24.9,19.2,0000.0,0005.56,0007.15,0005.48
2021-11-01 18:15:00,,0832.6,5.00,0.00,23.0,22.2,00.0,32.1,24.9,19.1,0000.0,0005.59,0007.19,0005.51
2021-11-01 18:16:00,,0832.6,4.99,0.00,23.0,22.2,00.0,32.1,24.9,19.1,0000.0,0005.61,0007.22,0005.54
2021-11-01 18:17:00,,0832.7,5.00,0.00,23.0,22.2,00.0,32.1,24.8,19.1,0000.0,0005.62,0007.23,0005.56
2021-11-01 18:18:00,,0832.7,5.01,0.00,23.0,22.2,00.0,32.1,24.9,19.1,0000.0,0005.63,0007.15,0005.57
2021-11-01 18:19:00,,0832.7,5.01,0.00,23.0,22.2,00.0,32.1,24.8,19.1,0000.0,0005.63,0007.11,0005.57
2021-11-01 18:20:00,,0832.7,5.00,0.00,23.0,22.2,00.0,32.1,24.9,19.1,0000.0,0005.64,0007.16,0005.56
2021-11-01 18:21:00,,0832.7,4.99,0.00,23.0,22.2,00.0,32.1,24.9,19.1,0000.0,0005.63,0007.13,0005.55
2021-11-01 18:22:00,,0832.7,5.01,0.00,23.0,22.2,00.0,32.1,24.9,19.0,0000.0,0005.63,0007.14,0005.54
2021-11-01 18:23:00,,0832.7,5.00,0.00,23.0,22.2,00.0,32.1,24.9,19.0,0000.0,0005.61,0007.09,0005.53
2021-11-01 18:24:00,,0832.6,5.00,0.00,23.0,22.2,00.0,32.1,24.9,19.1,0000.0,0005.58,0007.05,0005.51
2021-11-01 18:25:00,,0832.6,5.01,0.00,23.0,22.2,00.0,32.1,24.9,19.2,0000.0,0005.57,0007.00,0005.49
2021-11-01 18:26:00,,0832.6,4.99,0.00,23.0,22.2,00.0,32.1,24.9,19.2,0000.0,0005.55,0006.97,0005.47
2021-11-01 18:27:00,,0832.6,5.00,0.00,23.0,22.3,00.0,32.1,24.9,19.2,0000.0,0005.57,0007.10,0005.47
2021-11-01 18:28:00,,0832.6,5.00,0.00,23.1,22.3,00.0,32.1,24.9,19.2,0000.0,0005.59,0007.22,0005.48
2021-11-01 18:29:00,,0832.6,4.99,0.00,23.1,22.3,00.0,32.1,24.9,19.3,0000.0,0005.61,0007.30,0005.48
2021-11-01 18:30:00,,0832.6,5.01,0.00,23.1,22.3,00.0,32.1,24.9,19.3,0000.0,0005.63,0007.33,0005.50
2021-11-01 18:31:00,,0832.6,4.98,0.00,23.1,22.3,00.0,32.1,24.9,19.4,0000.0,0005.64,0007.32,0005.52
2021-11-01 18:32:00,,0832.6,5.01,0.00,23.1,22.3,00.0,32.1,24.9,19.3,0000.0,0005.65,0007.35,0005.54
2021-11-01 18:33:00,,0832.6,4.99,0.00,23.1,22.3,00.0,32.1,24.9,19.2,0000.0,0005.67,0007.37,0005.55
2021-11-01 18:34:00,,0832.6,5.00,0.00,23.1,22.3,00.0,32.1,24.9,19.1,0000.0,0005.71,0008.20,0005.58
2021-11-01 18:35:00,,0832.5,5.00,0.00,23.1,22.3,00.0,32.1,24.9,19.2,0000.0,0005.75,0008.40,0005.60
2021-11-01 18:36:00,,0832.5,5.00,0.00,23.1,22.3,00.0,32.1,24.9,19.3,0000.0,0005.78,0008.47,0005.62
2021-11-01 18:37:00,,0832.5,4.98,0.00,23.1,22.3,00.0,32.1,24.9,19.3,0000.0,0005.83,0008.55,0005.66
2021-11-01 18:38:00,,0832.5,5.00,0.00,23.1,22.3,00.0,32.1,24.9,19.3,0000.0,0005.85,0008.62,0005.69
2021-11-01 18:39:00,,0832.6,5.00,0.00,23.1,22.3,00.0,32.1,24.9,19.3,0000.0,0005.86,0008.68,0005.71
2021-11-01 18:40:00,,0832.6,5.01,0.00,23.1,22.3,00.0,32.1,24.9,19.4,0000.0,0005.86,0008.67,0005.72
2021-11-01 18:41:00,,0832.6,5.00,0.00,23.1,22.3,00.0,32.1,24.9,19.4,0000.0,0005.87,0008.65,0005.74
2021-11-01 18:42:00,,0832.6,5.02,0.00,23.1,22.3,00.0,32.1,24.9,19.2,0000.0,0005.91,0008.66,0005.78
2021-11-01 18:43:00,,0832.5,4.99,0.00,23.1,22.3,00.0,32.1,24.9,19.1,0000.0,0005.95,0008.69,0005.81
2021-11-01 18:44:00,,0832.5,5.00,0.00,23.1,22.3,00.0,32.1,24.9,19.1,0000.0,0005.99,0008.73,0005.85
2021-11-01 18:45:00,,0832.4,5.00,0.00,23.1,22.3,00.0,32.1,24.9,19.1,0000.0,0006.01,0008.06,0005.88
2021-11-01 18:46:00,,0832.4,5.01,0.00,23.1,22.3,00.0,32.1,25.0,19.1,0000.0,0006.04,0008.59,0005.92
2021-11-01 18:47:00,,0832.4,5.02,0.00,23.1,22.3,00.0,32.1,25.0,19.1,0000.0,0006.06,0008.58,0005.95
2021-11-01 18:48:00,,0832.3,5.00,0.00,23.1,22.3,00.0,32.1,24.9,19.1,0000.0,0006.07,0008.54,0005.95
2021-11-01 18:49:00,,0832.3,4.99,0.00,23.1,22.3,00.0,32.1,24.9,19.2,0000.0,0006.05,0008.43,0005.94
2021-11-01 18:50:00,,0832.4,5.01,0.00,23.1,22.3,00.0,32.1,25.0,19.2,0000.0,0006.08,0008.36,0005.96
2021-11-01 18:51:00,,0832.4,5.00,0.00,23.1,22.4,00.0,32.1,25.0,19.3,0000.0,0006.12,0008.40,0005.99
2021-11-01 18:52:00,,0832.4,5.00,0.00,23.1,22.4,00.0,32.1,25.0,19.1,0000.0,0006.13,0008.44,0005.98
2021-11-01 18:53:00,,0832.4,5.00,0.00,23.2,22.4,00.0,32.1,25.0,19.0,0000.0,0006.14,0008.48,0005.98
2021-11-01 18:54:00,,0832.4,5.00,0.00,23.2,22.4,00.0,32.2,25.0,19.0,0000.0,0006.14,0008.50,0005.98
2021-11-01 18:55:00,,0832.3,4.99,0.00,23.2,22.4,00.0,32.2,25.0,19.1,0000.0,0006.13,0008.52,0005.97
2021-11-01 18:56:00,,0832.3,5.01,0.00,23.2,22.4,00.0,32.2,25.0,19.2,0000.0,0006.12,0008.41,0005.96
2021-11-01 18:57:00,,0832.4,5.00,0.00,23.2,22.4,00.0,32.2,25.0,19.2,0000.0,0006.12,0007.72,0005.97
2021-11-01 18:58:00,,0832.4,5.01,0.00,23.2,22.4,00.0,32.2,25.0,19.1,0000.0,0006.13,0007.74,0005.98
2021-11-01 18:59:00,,0832.5,5.01,0.00,23.2,22.4,00.0,32.2,25.0,19.0,0000.0,0006.13,0007.73,0006.00
